Wetterdaten: Samstag, 15.01.2005
Datum Zeit Temp. A Sch. Temp. A Son. Feuchte A. Luftdruck Regen Wind Richtung Richtung Sonnenschein Helligkeit Taupunkt Windchill
15.01.2005 00:00 -1,1 C 0,0 C 86 % 1030 hPa 0,0 l/m 1,6 m/s (1 Bft) W-SW 255 0,00 min 0 lux -3,1 C -1,1 C
15.01.2005 00:05 -1,4 C -0,2 C 86 % 1030 hPa 0,0 l/m 0,2 m/s (0 Bft) W-SW 245 0,00 min 0 lux -3,4 C -1,4 C
15.01.2005 00:10 -1,6 C -0,4 C 86 % 1030 hPa 0,0 l/m 0,1 m/s (0 Bft) W-SW22.5 250 0,00 min 0 lux -3,6 C -1,6 C
15.01.2005 00:15 -1,9 C -0,5 C 86 % 1030 hPa 0,0 l/m 0,2 m/s (0 Bft) W-SW 255 0,00 min 0 lux -3,9 C -1,9 C
15.01.2005 00:20 -2,1 C -0,6 C 86 % 1030 hPa 0,0 l/m 0,0 m/s (0 Bft) W-SW 255 0,00 min 0 lux -4,1 C -2,1 C
15.01.2005 00:25 -2,2 C -0,8 C 86 % 1030 hPa 0,0 l/m 0,0 m/s (0 Bft) W-SW 255 0,00 min 0 lux -4,2 C -2,2 C
15.01.2005 00:30 -1,9 C -0,8 C 87 % 1030 hPa 0,0 l/m 0,0 m/s (0 Bft) SW 230 0,00 min 0 lux -3,8 C -1,9 C
15.01.2005 00:35 -2,0 C -0,9 C 87 % 1030 hPa 0,0 l/m 0,1 m/s (0 Bft) W-SW22.5 245 0,00 min 0 lux -3,9 C -2,0 C
15.01.2005 00:40 -2,0 C -1,0 C 87 % 1030 hPa 0,0 l/m 0,7 m/s (0 Bft) W 270 0,00 min 0 lux -3,9 C -2,0 C
15.01.2005 00:45 -2,1 C -1,1 C 87 % 1030 hPa 0,0 l/m 0,1 m/s (0 Bft) W 270 0,00 min 0 lux -4,0 C -2,1 C
15.01.2005 00:50 -2,5 C -1,2 C 87 % 1030 hPa 0,0 l/m 0,0 m/s (0 Bft) W 270 0,00 min 0 lux -4,4 C -2,5 C
15.01.2005 00:55 -2,5 C -1,3 C 87 % 1030 hPa 0,0 l/m 0,0 m/s (0 Bft) W 270 0,00 min 0 lux -4,4 C -2,5 C
15.01.2005 01:00 -2,8 C -1,4 C 87 % 1030 hPa 0,0 l/m 0,0 m/s (0 Bft) W 270 0,00 min 0 lux -4,7 C -2,8 C
15.01.2005 01:05 -2,7 C -1,5 C 87 % 1030 hPa 0,0 l/m 0,0 m/s (0 Bft) W 270 0,00 min 0 lux -4,6 C -2,7 C
15.01.2005 01:10 -2,7 C -1,6 C 88 % 1030 hPa 0,0 l/m 0,0 m/s (0 Bft) W 270 0,00 min 0 lux -4,4 C -2,7 C
15.01.2005 01:15 -2,3 C -1,7 C 88 % 1030 hPa 0,0 l/m 0,0 m/s (0 Bft) W 270 0,00 min 0 lux -4,0 C -2,3 C
15.01.2005 01:20 -2,7 C -1,7 C 88 % 1030 hPa 0,0 l/m 0,0 m/s (0 Bft) W 270 0,00 min 0 lux -4,4 C -2,7 C
15.01.2005 01:25 -2,7 C -1,8 C 88 % 1030 hPa 0,0 l/m 0,0 m/s (0 Bft) W 270 0,00 min 0 lux -4,4 C -2,7 C
15.01.2005 01:30 -2,9 C -1,8 C 88 % 1030 hPa 0,0 l/m 0,0 m/s (0 Bft) W 270 0,00 min 0 lux -4,6 C -2,9 C
15.01.2005 01:35 -2,9 C -1,8 C 88 % 1030 hPa 0,0 l/m 0,0 m/s (0 Bft) W 270 0,00 min 0 lux -4,6 C -2,9 C
15.01.2005 01:40 -3,0 C -1,9 C 88 % 1030 hPa 0,0 l/m 0,0 m/s (0 Bft) W 270 0,00 min 0 lux -4,7 C -3,0 C
15.01.2005 01:45 -3,0 C -2,0 C 88 % 1030 hPa 0,0 l/m 0,0 m/s (0 Bft) W 270 0,00 min 0 lux -4,7 C -3,0 C
15.01.2005 01:50 -3,0 C -2,0 C 89 % 1030 hPa 0,0 l/m 0,0 m/s (0 Bft) W 270 0,00 min 0 lux -4,6 C -3,0 C
15.01.2005 01:55 -3,1 C -2,0 C 88 % 1030 hPa 0,0 l/m 0,0 m/s (0 Bft) W 270 0,00 min 0 lux -4,8 C -3,1 C
15.01.2005 02:00 -3,2 C -2,1 C 88 % 1030 hPa 0,0 l/m 0,0 m/s (0 Bft) W 270 0,00 min 0 lux -4,9 C -3,2 C
15.01.2005 02:05 -3,3 C -2,1 C 88 % 1030 hPa 0,0 l/m 0,0 m/s (0 Bft) W 270 0,00 min 0 lux -5,0 C -3,3 C
15.01.2005 02:10 -3,2 C -2,1 C 88 % 1030 hPa 0,0 l/m 0,0 m/s (0 Bft) W 270 0,00 min 0 lux -4,9 C -3,2 C
15.01.2005 02:15 -3,2 C -2,2 C 88 % 1030 hPa 0,0 l/m 0,0 m/s (0 Bft) W 270 0,00 min 0 lux -4,9 C -3,2 C
15.01.2005 02:20 -3,3 C -2,2 C 89 % 1030 hPa 0,0 l/m 0,0 m/s (0 Bft) W 270 0,00 min 0 lux -4,8 C -3,3 C
15.01.2005 02:25 -2,9 C -2,3 C 89 % 1030 hPa 0,0 l/m 0,0 m/s (0 Bft) W 270 0,00 min 0 lux -4,5 C -2,9 C
15.01.2005 02:30 -3,0 C -2,3 C 89 % 1030 hPa 0,0 l/m 0,0 m/s (0 Bft) W 270 0,00 min 0 lux -4,6 C -3,0 C
15.01.2005 02:35 -3,1 C -2,3 C 89 % 1030 hPa 0,0 l/m 0,0 m/s (0 Bft) W 270 0,00 min 0 lux -4,6 C -3,1 C
15.01.2005 02:40 -3,2 C -2,2 C 89 % 1030 hPa 0,0 l/m 0,0 m/s (0 Bft) W 270 0,00 min 0 lux -4,7 C -3,2 C
15.01.2005 02:45 -3,0 C -2,2 C 89 % 1030 hPa 0,0 l/m 0,0 m/s (0 Bft) W 270 0,00 min 0 lux -4,6 C -3,0 C
15.01.2005 02:50 -3,0 C -2,1 C 89 % 1030 hPa 0,0 l/m 0,0 m/s (0 Bft) W 270 0,00 min 0 lux -4,6 C -3,0 C
15.01.2005 02:55 -3,2 C -2,1 C 89 % 1030 hPa 0,0 l/m 0,0 m/s (0 Bft) W 270 0,00 min 0 lux -4,7 C -3,2 C
15.01.2005 03:00 -3,1 C -2,1 C 89 % 1030 hPa 0,0 l/m 0,0 m/s (0 Bft) W 270 0,00 min 0 lux -4,6 C -3,1 C
15.01.2005 03:05 -3,1 C -2,1 C 89 % 1030 hPa 0,0 l/m 0,0 m/s (0 Bft) W 270 0,00 min 0 lux -4,6 C -3,1 C
15.01.2005 03:10 -2,9 C -2,1 C 89 % 1030 hPa 0,0 l/m 0,0 m/s (0 Bft) W 270 0,00 min 0 lux -4,5 C -2,9 C
15.01.2005 03:15 -2,8 C -2,1 C 90 % 1030 hPa 0,0 l/m 0,0 m/s (0 Bft) W 270 0,00 min 0 lux -4,2 C -2,8 C
15.01.2005 03:20 -2,7 C -2,0 C 90 % 1030 hPa 0,0 l/m 0,0 m/s (0 Bft) W 270 0,00 min 0 lux -4,1 C -2,7 C
15.01.2005 03:25 -2,5 C -1,9 C 90 % 1030 hPa 0,0 l/m 0,0 m/s (0 Bft) W 270 0,00 min 0 lux -3,9 C -2,5 C
15.01.2005 03:30 -2,5 C -1,8 C 90 % 1030 hPa 0,0 l/m 0,0 m/s (0 Bft) W 270 0,00 min 0 lux -3,9 C -2,5 C
15.01.2005 03:35 -2,4 C -1,8 C 90 % 1030 hPa 0,0 l/m 0,0 m/s (0 Bft) W 270 0,00 min 0 lux -3,8 C -2,4 C
15.01.2005 03:40 -2,4 C -1,7 C 90 % 1030 hPa 0,0 l/m 0,0 m/s (0 Bft) W 270 0,00 min 0 lux -3,8 C -2,4 C
15.01.2005 03:45 -2,3 C -1,7 C 90 % 1030 hPa 0,0 l/m 0,0 m/s (0 Bft) W 270 0,00 min 0 lux -3,7 C -2,3 C
15.01.2005 03:50 -2,1 C -1,6 C 91 % 1030 hPa 0,0 l/m 0,0 m/s (0 Bft) W 270 0,00 min 0 lux -3,4 C -2,1 C
15.01.2005 03:55 -2,2 C -1,5 C 90 % 1030 hPa 0,0 l/m 0,0 m/s (0 Bft) W 270 0,00 min 0 lux -3,6 C -2,2 C
15.01.2005 04:00 -2,2 C -1,5 C 90 % 1030 hPa 0,0 l/m 0,0 m/s (0 Bft) W 270 0,00 min 0 lux -3,6 C -2,2 C
15.01.2005 04:05 -2,1 C -1,5 C 90 % 1030 hPa 0,0 l/m 0,0 m/s (0 Bft) W 270 0,00 min 0 lux -3,5 C -2,1 C
15.01.2005 04:10 -2,1 C -1,4 C 90 % 1030 hPa 0,0 l/m 0,0 m/s (0 Bft) W 270 0,00 min 0 lux -3,5 C -2,1 C
15.01.2005 04:15 -2,0 C -1,4 C 90 % 1029 hPa 0,0 l/m 0,0 m/s (0 Bft) W 270 0,00 min 0 lux -3,4 C -2,0 C
15.01.2005 04:20 -1,9 C -1,4 C 90 % 1029 hPa 0,0 l/m 0,0 m/s (0 Bft) W 270 0,00 min 0 lux -3,3 C -1,9 C
15.01.2005 04:25 -1,9 C -1,4 C 90 % 1029 hPa 0,0 l/m 0,0 m/s (0 Bft) W 270 0,00 min 0 lux -3,3 C -1,9 C
15.01.2005 04:30 -1,8 C -1,3 C 91 % 1029 hPa 0,0 l/m 0,0 m/s (0 Bft) W 270 0,00 min 0 lux -3,1 C -1,8 C
15.01.2005 04:35 -1,8 C -1,3 C 91 % 1029 hPa 0,0 l/m 0,0 m/s (0 Bft) W 270 0,00 min 0 lux -3,1 C -1,8 C
15.01.2005 04:40 -1,8 C -1,2 C 91 % 1030 hPa 0,0 l/m 0,0 m/s (0 Bft) W 270 0,00 min 0 lux -3,1 C -1,8 C
15.01.2005 04:45 -1,8 C -1,2 C 91 % 1030 hPa 0,0 l/m 0,7 m/s (0 Bft) W 270 0,00 min 0 lux -3,1 C -1,8 C
15.01.2005 04:50 -1,8 C -1,1 C 91 % 1030 hPa 0,0 l/m 1,2 m/s (1 Bft) W 270 0,00 min 0 lux -3,1 C -1,8 C
15.01.2005 04:55 -1,7 C -1,1 C 91 % 1030 hPa 0,0 l/m 1,1 m/s (0 Bft) W 270 0,00 min 0 lux -3,0 C -1,7 C
15.01.2005 05:00 -1,7 C -1,1 C 91 % 1030 hPa 0,0 l/m 1,0 m/s (0 Bft) W 275 0,00 min 0 lux -3,0 C -1,7 C
15.01.2005 05:05 -1,6 C -1,0 C 91 % 1029 hPa 0,0 l/m 0,6 m/s (0 Bft) W 270 0,00 min 0 lux -2,9 C -1,6 C
15.01.2005 05:10 -1,7 C -0,9 C 91 % 1029 hPa 0,0 l/m 1,0 m/s (0 Bft) W 270 0,00 min 0 lux -3,0 C -1,7 C
15.01.2005 05:15 -1,7 C -0,9 C 91 % 1029 hPa 0,0 l/m 1,6 m/s (1 Bft) W 270 0,00 min 0 lux -3,0 C -1,7 C
15.01.2005 05:20 -1,8 C -0,9 C 92 % 1029 hPa 0,0 l/m 1,8 m/s (1 Bft) W 270 0,00 min 0 lux -2,9 C -1,8 C
15.01.2005 05:25 -1,7 C -0,9 C 92 % 1029 hPa 0,0 l/m 1,6 m/s (1 Bft) W 270 0,00 min 0 lux -2,8 C -1,7 C
15.01.2005 05:30 -1,8 C -0,9 C 92 % 1029 hPa 0,0 l/m 2,3 m/s (1 Bft) W 270 0,00 min 0 lux -2,9 C -3,8 C
15.01.2005 05:35 -1,8 C -0,9 C 92 % 1029 hPa 0,0 l/m 1,8 m/s (1 Bft) W 270 0,00 min 0 lux -2,9 C -1,9 C
15.01.2005 05:40 -1,8 C -0,9 C 92 % 1029 hPa 0,0 l/m 1,7 m/s (1 Bft) W 270 0,00 min 0 lux -2,9 C -1,8 C
15.01.2005 05:45 -1,7 C -0,9 C 92 % 1029 hPa 0,0 l/m 2,5 m/s (1 Bft) W 270 0,00 min 0 lux -2,8 C -4,5 C
15.01.2005 05:50 -1,7 C -0,9 C 93 % 1029 hPa 0,0 l/m 2,1 m/s (1 Bft) W 270 0,00 min 0 lux -2,7 C -2,8 C
15.01.2005 05:55 -1,7 C -0,9 C 93 % 1029 hPa 0,0 l/m 1,8 m/s (1 Bft) W 270 0,00 min 0 lux -2,7 C -1,9 C
15.01.2005 06:00 -1,6 C -0,9 C 93 % 1029 hPa 0,0 l/m 0,2 m/s (0 Bft) W 270 0,00 min 0 lux -2,6 C -1,6 C
15.01.2005 06:05 -1,6 C -0,8 C 93 % 1029 hPa 0,0 l/m 1,0 m/s (0 Bft) W 270 0,00 min 0 lux -2,6 C -1,6 C
15.01.2005 06:10 -1,4 C -0,8 C 93 % 1030 hPa 0,0 l/m 0,1 m/s (0 Bft) W 270 0,00 min 0 lux -2,4 C -1,4 C
15.01.2005 06:15 -1,6 C -0,8 C 93 % 1029 hPa 0,0 l/m 1,0 m/s (0 Bft) W 270 0,00 min 0 lux -2,6 C -1,6 C
15.01.2005 06:20 -1,6 C -0,8 C 93 % 1029 hPa 0,0 l/m 1,3 m/s (1 Bft) W 270 0,00 min 0 lux -2,6 C -1,6 C
15.01.2005 06:25 -1,6 C -0,8 C 94 % 1029 hPa 0,0 l/m 0,8 m/s (0 Bft) W 270 0,00 min 0 lux -2,4 C -1,6 C
15.01.2005 06:30 -1,4 C -0,8 C 94 % 1029 hPa 0,0 l/m 0,1 m/s (0 Bft) W 270 0,00 min 0 lux -2,2 C -1,4 C
15.01.2005 06:35 -1,6 C -0,8 C 94 % 1030 hPa 0,0 l/m 0,3 m/s (0 Bft) W 270 0,00 min 0 lux -2,4 C -1,6 C
15.01.2005 06:40 -1,4 C -0,8 C 94 % 1030 hPa 0,0 l/m 0,7 m/s (0 Bft) W 270 0,00 min 0 lux -2,2 C -1,4 C
15.01.2005 06:45 -1,4 C -0,8 C 94 % 1030 hPa 0,0 l/m 0,2 m/s (0 Bft) W 270 0,00 min 0 lux -2,2 C -1,4 C
15.01.2005 06:50 -1,4 C -0,7 C 94 % 1029 hPa 0,0 l/m 0,2 m/s (0 Bft) W 270 0,00 min 0 lux -2,2 C -1,4 C
15.01.2005 06:55 -1,4 C -0,7 C 94 % 1030 hPa 0,0 l/m 0,0 m/s (0 Bft) W 270 0,00 min 0 lux -2,2 C -1,4 C
15.01.2005 07:00 -1,6 C -0,7 C 94 % 1029 hPa 0,0 l/m 0,0 m/s (0 Bft) W 270 0,00 min 0 lux -2,4 C -1,6 C
15.01.2005 07:05 -1,6 C -0,7 C 94 % 1029 hPa 0,0 l/m 0,0 m/s (0 Bft) W 270 0,00 min 0 lux -2,4 C -1,6 C
15.01.2005 07:10 -1,4 C -0,7 C 94 % 1029 hPa 0,0 l/m 1,2 m/s (1 Bft) W 270 0,00 min 0 lux -2,2 C -1,4 C
15.01.2005 07:15 -1,4 C -0,7 C 94 % 1029 hPa 0,0 l/m 0,1 m/s (0 Bft) W 270 0,00 min 0 lux -2,2 C -1,4 C
15.01.2005 07:20 -1,6 C -0,7 C 94 % 1029 hPa 0,0 l/m 1,1 m/s (1 Bft) W 270 0,00 min 0 lux -2,4 C -1,6 C
15.01.2005 07:25 -1,8 C -0,7 C 94 % 1029 hPa 0,0 l/m 1,6 m/s (1 Bft) W 270 0,00 min 0 lux -2,6 C -1,8 C
15.01.2005 07:30 -1,6 C -0,7 C 94 % 1029 hPa 0,0 l/m 1,0 m/s (0 Bft) W 270 0,00 min 0 lux -2,4 C -1,6 C
15.01.2005 07:35 -1,7 C -0,7 C 94 % 1029 hPa 0,0 l/m 0,2 m/s (0 Bft) W 270 0,00 min 0 lux -2,5 C -1,7 C
15.01.2005 07:40 -1,9 C -0,7 C 94 % 1029 hPa 0,0 l/m 1,4 m/s (1 Bft) W 270 0,00 min 0 lux -2,7 C -1,9 C
15.01.2005 07:45 -1,9 C -0,7 C 94 % 1029 hPa 0,0 l/m 1,4 m/s (1 Bft) W 270 0,00 min 0 lux -2,7 C -1,9 C
15.01.2005 07:50 -2,0 C -0,7 C 94 % 1029 hPa 0,0 l/m 1,9 m/s (1 Bft) W 270 0,00 min 0 lux -2,8 C -2,7 C
15.01.2005 07:55 -1,9 C -0,8 C 94 % 1029 hPa 0,0 l/m 1,4 m/s (1 Bft) W 270 0,00 min 0 lux -2,7 C -1,9 C
15.01.2005 08:00 -2,0 C -0,9 C 94 % 1029 hPa 0,0 l/m 1,5 m/s (1 Bft) W 270 0,00 min 0 lux -2,8 C -2,0 C
15.01.2005 08:05 -2,1 C -0,9 C 94 % 1029 hPa 0,0 l/m 2,4 m/s (1 Bft) W 270 0,00 min 41 lux -2,9 C -4,6 C
15.01.2005 08:10 -2,0 C -0,9 C 95 % 1029 hPa 0,0 l/m 1,8 m/s (1 Bft) W22.5 270 0,00 min 70 lux -2,7 C -2,0 C
15.01.2005 08:15 -2,0 C -1,0 C 95 % 1030 hPa 0,0 l/m 1,5 m/s (1 Bft) W 270 0,00 min 116 lux -2,7 C -2,0 C
15.01.2005 08:20 -2,1 C -1,0 C 95 % 1030 hPa 0,0 l/m 2,4 m/s (1 Bft) W 270 0,00 min 169 lux -2,8 C -4,6 C
15.01.2005 08:25 -2,0 C -1,0 C 95 % 1030 hPa 0,0 l/m 2,2 m/s (1 Bft) W 270 0,00 min 239 lux -2,7 C -3,6 C
15.01.2005 08:30 -2,1 C -1,0 C 95 % 1030 hPa 0,0 l/m 2,5 m/s (1 Bft) W 270 0,00 min 341 lux -2,8 C -4,9 C
15.01.2005 08:35 -2,0 C -1,0 C 95 % 1030 hPa 0,0 l/m 1,6 m/s (1 Bft) W 270 0,00 min 493 lux -2,7 C -2,0 C
15.01.2005 08:40 -2,2 C -1,0 C 95 % 1030 hPa 0,0 l/m 2,2 m/s (1 Bft) W 270 0,00 min 574 lux -2,9 C -3,9 C
15.01.2005 08:45 -2,2 C -1,0 C 95 % 1030 hPa 0,0 l/m 2,5 m/s (1 Bft) W 270 0,00 min 712 lux -2,9 C -5,0 C
15.01.2005 08:50 -2,3 C -1,0 C 95 % 1030 hPa 0,0 l/m 2,6 m/s (1 Bft) W 270 0,00 min 906 lux -3,0 C -5,4 C
15.01.2005 08:55 -2,3 C -1,1 C 95 % 1030 hPa 0,0 l/m 2,8 m/s (1 Bft) W 270 0,00 min 1,23 klux -3,0 C -5,9 C
15.01.2005 09:00 -2,2 C -1,0 C 95 % 1030 hPa 0,0 l/m 1,6 m/s (1 Bft) W 270 0,00 min 1,68 klux -2,9 C -2,2 C
15.01.2005 09:05 -2,1 C -1,0 C 95 % 1030 hPa 0,0 l/m 2,1 m/s (1 Bft) W 270 0,00 min 1,85 klux -2,8 C -3,3 C
15.01.2005 09:10 -2,3 C -1,0 C 95 % 1030 hPa 0,0 l/m 1,9 m/s (1 Bft) W 270 0,00 min 1,86 klux -3,0 C -2,7 C
15.01.2005 09:15 -2,4 C -1,0 C 95 % 1030 hPa 0,0 l/m 1,4 m/s (1 Bft) W 270 0,00 min 3,28 klux -3,1 C -2,4 C
15.01.2005 09:20 -2,3 C -1,0 C 95 % 1030 hPa 0,0 l/m 1,6 m/s (1 Bft) W 270 0,00 min 3,58 klux -3,0 C -2,3 C
15.01.2005 09:25 -2,4 C -1,0 C 95 % 1030 hPa 0,0 l/m 2,1 m/s (1 Bft) W 270 0,00 min 3,88 klux -3,1 C -3,6 C
15.01.2005 09:30 -2,5 C -1,0 C 95 % 1030 hPa 0,0 l/m 2,1 m/s (1 Bft) W22.5 270 0,00 min 5,61 klux -3,2 C -3,6 C
15.01.2005 09:35 -2,2 C -1,0 C 95 % 1030 hPa 0,0 l/m 0,9 m/s (0 Bft) W 270 0,00 min 4,80 klux -2,9 C -2,2 C
15.01.2005 09:40 -2,1 C -0,9 C 95 % 1030 hPa 0,0 l/m 0,0 m/s (0 Bft) W 270 0,00 min 6,93 klux -2,8 C -2,1 C
15.01.2005 09:45 -2,1 C -0,9 C 95 % 1030 hPa 0,0 l/m 1,2 m/s (1 Bft) W 275 0,00 min 6,68 klux -2,8 C -2,1 C
15.01.2005 09:50 -2,2 C -0,9 C 95 % 1030 hPa 0,0 l/m 1,7 m/s (1 Bft) W 270 0,00 min 7,19 klux -2,9 C -2,2 C
15.01.2005 09:55 -2,2 C -0,9 C 95 % 1030 hPa 0,0 l/m 2,5 m/s (1 Bft) W 270 0,00 min 7,44 klux -2,9 C -4,9 C
15.01.2005 10:00 -2,3 C -0,8 C 95 % 1030 hPa 0,0 l/m 1,9 m/s (1 Bft) W 270 0,00 min 8,80 klux -3,0 C -2,7 C
15.01.2005 10:05 -2,2 C -0,8 C 94 % 1030 hPa 0,0 l/m 2,3 m/s (1 Bft) W22.5 270 0,00 min 9,9 klux -3,0 C -4,3 C
15.01.2005 10:10 -2,3 C -0,8 C 94 % 1030 hPa 0,0 l/m 2,1 m/s (1 Bft) W22.5 275 0,00 min 8,72 klux -3,1 C -3,6 C
15.01.2005 10:15 -2,1 C -0,8 C 94 % 1030 hPa 0,0 l/m 1,9 m/s (1 Bft) W 270 0,00 min 10,2 klux -2,9 C -2,6 C
15.01.2005 10:20 -2,1 C -0,8 C 94 % 1030 hPa 0,0 l/m 1,8 m/s (1 Bft) W 270 0,00 min 9,6 klux -2,9 C -2,2 C
15.01.2005 10:25 -2,0 C -0,8 C 94 % 1030 hPa 0,0 l/m 1,7 m/s (1 Bft) W22.5 270 0,00 min 10,6 klux -2,8 C -2,0 C
15.01.2005 10:30 -2,0 C -0,6 C 94 % 1030 hPa 0,0 l/m 1,3 m/s (1 Bft) W 270 0,00 min 15,8 klux -2,8 C -2,0 C
15.01.2005 10:35 -1,8 C -0,5 C 94 % 1030 hPa 0,0 l/m 1,7 m/s (1 Bft) W 270 0,00 min 13,3 klux -2,6 C -1,8 C
15.01.2005 10:40 -1,8 C -0,5 C 94 % 1030 hPa 0,0 l/m 0,9 m/s (0 Bft) W 275 0,00 min 11,7 klux -2,6 C -1,8 C
15.01.2005 10:45 -1,8 C -0,5 C 94 % 1030 hPa 0,0 l/m 1,3 m/s (1 Bft) W 275 0,00 min 11,5 klux -2,6 C -1,8 C
15.01.2005 10:50 -1,8 C -0,6 C 94 % 1030 hPa 0,0 l/m 1,3 m/s (1 Bft) W22.5 275 5,00 min 19,9 klux -2,6 C -1,8 C
15.01.2005 10:55 -1,9 C -0,6 C 93 % 1030 hPa 0,0 l/m 1,4 m/s (1 Bft) W 270 0,00 min 14,8 klux -2,9 C -1,9 C
15.01.2005 11:00 -1,8 C -0,5 C 93 % 1030 hPa 0,0 l/m 1,1 m/s (1 Bft) W 270 5,00 min 33,5 klux -2,8 C -1,8 C
15.01.2005 11:05 -1,3 C -0,4 C 93 % 1030 hPa 0,0 l/m 1,6 m/s (1 Bft) W 270 5,00 min 37,1 klux -2,3 C -1,3 C
15.01.2005 11:10 -1,0 C -0,2 C 93 % 1031 hPa 0,0 l/m 2,0 m/s (1 Bft) W 270 5,00 min 41,2 klux -2,0 C -1,7 C
15.01.2005 11:15 -1,0 C 0,0 C 93 % 1031 hPa 0,0 l/m 2,5 m/s (1 Bft) W 270 5,00 min 37,2 klux -2,0 C -3,7 C
15.01.2005 11:20 -0,8 C 0,1 C 93 % 1030 hPa 0,0 l/m 2,1 m/s (1 Bft) W 270 5,00 min 37,6 klux -1,8 C -2,0 C
15.01.2005 11:25 -0,8 C 0,1 C 92 % 1030 hPa 0,0 l/m 1,7 m/s (1 Bft) W 270 5,00 min 37,6 klux -1,9 C -0,8 C
15.01.2005 11:30 -0,7 C 0,2 C 91 % 1030 hPa 0,0 l/m 1,3 m/s (1 Bft) W 270 5,00 min 38,3 klux -2,0 C -0,7 C
15.01.2005 11:35 -0,5 C 0,2 C 91 % 1030 hPa 0,0 l/m 1,0 m/s (0 Bft) W 270 5,00 min 38,9 klux -1,8 C -0,5 C
15.01.2005 11:40 -0,4 C 0,2 C 90 % 1030 hPa 0,0 l/m 1,5 m/s (1 Bft) W 275 5,00 min 38,8 klux -1,8 C -0,4 C
15.01.2005 11:45 0,0 C 0,2 C 89 % 1030 hPa 0,0 l/m 1,1 m/s (1 Bft) W 275 5,00 min 38,8 klux -1,6 C 0,0 C
15.01.2005 11:50 0,1 C 0,3 C 89 % 1030 hPa 0,0 l/m 2,6 m/s (1 Bft) W 265 5,00 min 38,6 klux -1,5 C -2,9 C
15.01.2005 11:55 0,5 C 0,4 C 87 % 1030 hPa 0,0 l/m 2,4 m/s (1 Bft) W-SW 255 5,00 min 38,7 klux -1,4 C -1,6 C
15.01.2005 12:00 0,4 C 0,5 C 85 % 1030 hPa 0,0 l/m 2,2 m/s (1 Bft) W-SW 245 5,00 min 39,1 klux -1,8 C -1,0 C
15.01.2005 12:05 0,5 C 0,6 C 84 % 1030 hPa 0,0 l/m 2,0 m/s (1 Bft) O-SO67.5 105 5,00 min 39,2 klux -1,9 C -0,3 C
15.01.2005 12:10 0,8 C 0,7 C 81 % 1030 hPa 0,0 l/m 2,7 m/s (1 Bft) O22.5 100 5,00 min 38,3 klux -2,1 C -2,4 C
15.01.2005 12:15 1,1 C 0,8 C 79 % 1030 hPa 0,0 l/m 2,8 m/s (1 Bft) O-SO45 105 5,00 min 38,5 klux -2,1 C -2,4 C
15.01.2005 12:20 1,0 C 0,9 C 78 % 1030 hPa 0,0 l/m 2,3 m/s (1 Bft) O-SO22.5 110 5,00 min 38,8 klux -2,4 C -0,9 C
15.01.2005 12:25 1,0 C 1,0 C 76 % 1030 hPa 0,0 l/m 2,7 m/s (1 Bft) O22.5 100 5,00 min 38,8 klux -2,7 C -2,2 C
15.01.2005 12:30 1,2 C 1,1 C 75 % 1030 hPa 0,0 l/m 2,3 m/s (1 Bft) O-SO22.5 115 5,00 min 38,6 klux -2,7 C -0,7 C
15.01.2005 12:35 1,4 C 1,1 C 74 % 1030 hPa 0,0 l/m 2,8 m/s (1 Bft) O-SO45 115 5,00 min 38,7 klux -2,7 C -1,9 C
15.01.2005 12:40 1,3 C 1,2 C 74 % 1030 hPa 0,0 l/m 2,5 m/s (1 Bft) O-SO45 120 5,00 min 38,7 klux -2,8 C -1,2 C
15.01.2005 12:45 1,5 C 1,4 C 73 % 1030 hPa 0,0 l/m 2,3 m/s (1 Bft) O-SO67.5 115 5,00 min 38,7 klux -2,8 C -0,2 C
15.01.2005 12:50 1,6 C 1,5 C 72 % 1029 hPa 0,0 l/m 2,2 m/s (1 Bft) O-SO45 105 5,00 min 38,1 klux -2,9 C 0,2 C
15.01.2005 12:55 1,6 C 1,5 C 72 % 1029 hPa 0,0 l/m 2,8 m/s (1 Bft) O45 90 5,00 min 38,7 klux -2,9 C -1,8 C
15.01.2005 13:00 1,9 C 1,7 C 71 % 1029 hPa 0,0 l/m 2,4 m/s (1 Bft) O-SO22.5 105 5,00 min 38,2 klux -2,8 C -0,4 C
15.01.2005 13:05 1,9 C 1,8 C 71 % 1029 hPa 0,0 l/m 2,9 m/s (1 Bft) O-SO22.5 110 5,00 min 38,2 klux -2,8 C -1,7 C
15.01.2005 13:10 2,1 C 1,8 C 70 % 1029 hPa 0,0 l/m 2,9 m/s (1 Bft) O-SO45 115 5,00 min 38,7 klux -2,8 C -1,6 C
15.01.2005 13:15 2,2 C 1,9 C 68 % 1029 hPa 0,0 l/m 4,3 m/s (1 Bft) O-SO45 115 5,00 min 38,5 klux -3,1 C -4,5 C
15.01.2005 13:20 2,4 C 2,1 C 66 % 1029 hPa 0,0 l/m 4,7 m/s (1 Bft) SO67.5 125 5,00 min 38,6 klux -3,3 C -5,0 C
15.01.2005 13:25 2,4 C 2,2 C 66 % 1029 hPa 0,0 l/m 4,5 m/s (1 Bft) O-SO22.5 115 5,00 min 38,2 klux -3,3 C -4,8 C
15.01.2005 13:30 2,5 C 2,3 C 65 % 1029 hPa 0,0 l/m 4,7 m/s (1 Bft) O-SO22.5 110 5,00 min 38,2 klux -3,4 C -4,9 C
15.01.2005 13:35 2,4 C 2,3 C 65 % 1029 hPa 0,0 l/m 4,3 m/s (1 Bft) O-SO45 120 5,00 min 38,1 klux -3,5 C -4,2 C
15.01.2005 13:40 2,5 C 2,4 C 64 % 1029 hPa 0,0 l/m 3,5 m/s (1 Bft) O-SO22.5 115 5,00 min 38,1 klux -3,6 C -2,5 C
15.01.2005 13:45 2,5 C 2,5 C 63 % 1029 hPa 0,0 l/m 3,1 m/s (1 Bft) O-SO45 120 5,00 min 37,2 klux -3,8 C -1,4 C
15.01.2005 13:50 2,5 C 2,5 C 62 % 1029 hPa 0,0 l/m 3,6 m/s (1 Bft) SO45 125 5,00 min 36,6 klux -4,0 C -2,8 C
15.01.2005 13:55 2,6 C 2,7 C 61 % 1029 hPa 0,0 l/m 2,9 m/s (1 Bft) O-SO45 115 5,00 min 36,6 klux -4,1 C -1,0 C
15.01.2005 14:00 2,7 C 2,7 C 60 % 1029 hPa 0,0 l/m 3,4 m/s (1 Bft) O-SO22.5 115 5,00 min 36,0 klux -4,3 C -2,1 C
15.01.2005 14:05 2,6 C 2,8 C 60 % 1029 hPa 0,0 l/m 3,9 m/s (1 Bft) O-SO45 115 5,00 min 35,1 klux -4,4 C -3,2 C
15.01.2005 14:10 2,7 C 2,8 C 59 % 1029 hPa 0,0 l/m 3,0 m/s (1 Bft) O-SO45 115 5,00 min 35,2 klux -4,5 C -1,1 C
15.01.2005 14:15 2,7 C 2,9 C 59 % 1029 hPa 0,0 l/m 5,1 m/s (1 Bft) O-SO45 115 5,00 min 35,2 klux -4,5 C -5,3 C
15.01.2005 14:20 2,7 C 2,9 C 57 % 1029 hPa 0,0 l/m 4,3 m/s (1 Bft) SO22.5 125 5,00 min 34,3 klux -4,9 C -3,9 C
15.01.2005 14:25 2,5 C 2,9 C 56 % 1029 hPa 0,0 l/m 3,1 m/s (1 Bft) SO22.5 125 5,00 min 33,8 klux -5,4 C -1,6 C
15.01.2005 14:30 2,5 C 2,9 C 56 % 1029 hPa 0,0 l/m 4,8 m/s (1 Bft) SO45 125 5,00 min 33,2 klux -5,4 C -5,2 C
15.01.2005 14:35 2,5 C 2,8 C 57 % 1028 hPa 0,0 l/m 3,6 m/s (1 Bft) SO22.5 130 5,00 min 32,6 klux -5,1 C -2,8 C
15.01.2005 14:40 2,6 C 2,8 C 56 % 1028 hPa 0,0 l/m 4,2 m/s (1 Bft) O-SO67.5 110 5,00 min 32,2 klux -5,3 C -3,9 C
15.01.2005 14:45 2,6 C 2,8 C 54 % 1029 hPa 0,0 l/m 4,7 m/s (1 Bft) O-SO22.5 120 5,00 min 30,9 klux -5,8 C -4,9 C
15.01.2005 14:50 2,6 C 2,8 C 54 % 1029 hPa 0,0 l/m 3,8 m/s (1 Bft) SO22.5 130 5,00 min 30,8 klux -5,8 C -3,0 C
15.01.2005 14:55 2,5 C 2,8 C 54 % 1029 hPa 0,0 l/m 4,7 m/s (1 Bft) O-SO22.5 115 5,00 min 29,7 klux -5,8 C -4,9 C
15.01.2005 15:00 2,4 C 2,8 C 55 % 1029 hPa 0,0 l/m 5,3 m/s (1 Bft) SO45 140 5,00 min 28,7 klux -5,7 C -6,2 C
15.01.2005 15:05 2,5 C 2,8 C 55 % 1029 hPa 0,0 l/m 4,9 m/s (1 Bft) SO67.5 130 5,00 min 27,6 klux -5,6 C -5,4 C
15.01.2005 15:10 2,5 C 2,8 C 55 % 1028 hPa 0,0 l/m 4,0 m/s (1 Bft) SO45 125 5,00 min 26,9 klux -5,6 C -3,7 C
15.01.2005 15:15 2,3 C 2,8 C 55 % 1028 hPa 0,0 l/m 4,7 m/s (1 Bft) SO45 125 5,00 min 25,8 klux -5,8 C -5,2 C
15.01.2005 15:20 2,4 C 2,8 C 55 % 1028 hPa 0,0 l/m 2,6 m/s (1 Bft) SO45 135 5,00 min 24,9 klux -5,7 C -0,4 C
15.01.2005 15:25 2,3 C 2,9 C 56 % 1028 hPa 0,0 l/m 3,5 m/s (1 Bft) SO22.5 140 5,00 min 23,5 klux -5,6 C -2,8 C
15.01.2005 15:30 2,4 C 2,9 C 57 % 1028 hPa 0,0 l/m 3,0 m/s (1 Bft) SO45 140 5,00 min 22,3 klux -5,2 C -1,5 C
15.01.2005 15:35 2,2 C 2,8 C 57 % 1028 hPa 0,0 l/m 3,6 m/s (1 Bft) SO45 135 5,00 min 20,9 klux -5,4 C -3,0 C
15.01.2005 15:40 2,2 C 2,7 C 57 % 1028 hPa 0,0 l/m 2,7 m/s (1 Bft) SO22.5 135 5,00 min 19,4 klux -5,4 C -0,7 C
15.01.2005 15:45 2,1 C 2,6 C 58 % 1028 hPa 0,0 l/m 3,0 m/s (1 Bft) O-SO22.5 115 5,00 min 18,7 klux -5,3 C -1,7 C
15.01.2005 15:50 2,0 C 2,5 C 58 % 1028 hPa 0,0 l/m 2,9 m/s (1 Bft) O-SO22.5 120 5,00 min 17,2 klux -5,4 C -1,6 C
15.01.2005 15:55 2,0 C 2,4 C 59 % 1028 hPa 0,0 l/m 2,9 m/s (1 Bft) O-SO45 120 5,00 min 15,7 klux -5,2 C -1,5 C
15.01.2005 16:00 1,8 C 2,3 C 61 % 1028 hPa 0,0 l/m 2,3 m/s (1 Bft) O-SO22.5 115 5,00 min 14,1 klux -4,9 C -0,0 C
15.01.2005 16:05 1,7 C 2,2 C 61 % 1028 hPa 0,0 l/m 2,2 m/s (1 Bft) O-SO22.5 115 5,00 min 12,4 klux -5,0 C 0,3 C
15.01.2005 16:10 1,6 C 2,1 C 62 % 1028 hPa 0,0 l/m 2,2 m/s (1 Bft) O-SO45 120 5,00 min 10,6 klux -4,9 C 0,2 C
15.01.2005 16:15 1,6 C 1,9 C 62 % 1028 hPa 0,0 l/m 2,4 m/s (1 Bft) O-SO45 115 5,00 min 9,1 klux -4,9 C -0,6 C
15.01.2005 16:20 1,6 C 1,8 C 62 % 1028 hPa 0,0 l/m 3,1 m/s (1 Bft) O-SO22.5 115 5,00 min 7,27 klux -4,9 C -2,5 C
15.01.2005 16:25 1,4 C 1,7 C 63 % 1028 hPa 0,0 l/m 2,6 m/s (1 Bft) O-SO22.5 115 5,00 min 5,72 klux -4,9 C -1,4 C
15.01.2005 16:30 1,4 C 1,5 C 63 % 1028 hPa 0,0 l/m 2,0 m/s (1 Bft) O-SO22.5 115 5,00 min 4,14 klux -4,9 C 0,6 C
15.01.2005 16:35 1,2 C 1,4 C 64 % 1028 hPa 0,0 l/m 1,4 m/s (1 Bft) O45 90 5,00 min 3,42 klux -4,8 C 1,2 C
15.01.2005 16:40 1,0 C 1,2 C 65 % 1028 hPa 0,0 l/m 1,9 m/s (1 Bft) O-SO22.5 105 0,00 min 2,04 klux -4,8 C 0,7 C
15.01.2005 16:45 1,1 C 1,1 C 65 % 1028 hPa 0,0 l/m 2,2 m/s (1 Bft) O22.5 95 0,00 min 1,11 klux -4,7 C -0,4 C
15.01.2005 16:50 0,8 C 1,0 C 67 % 1028 hPa 0,0 l/m 2,0 m/s (1 Bft) O22.5 95 0,00 min 742 lux -4,6 C -0,1 C
15.01.2005 16:55 0,4 C 0,7 C 68 % 1028 hPa 0,0 l/m 1,0 m/s (0 Bft) O45 85 0,00 min 490 lux -4,8 C 0,4 C
15.01.2005 17:00 0,2 C 0,6 C 69 % 1028 hPa 0,0 l/m 0,0 m/s (0 Bft) O-NO 75 0,00 min 246 lux -4,8 C 0,2 C
15.01.2005 17:05 -0,2 C 0,3 C 70 % 1028 hPa 0,0 l/m 0,0 m/s (0 Bft) O-NO 75 0,00 min 191 lux -5,0 C -0,2 C
15.01.2005 17:10 -0,5 C 0,2 C 72 % 1028 hPa 0,0 l/m 0,0 m/s (0 Bft) O-NO 75 0,00 min 108 lux -4,9 C -0,5 C
15.01.2005 17:15 -0,6 C 0,0 C 72 % 1028 hPa 0,0 l/m 0,0 m/s (0 Bft) O-NO 75 0,00 min 57 lux -5,0 C -0,6 C
15.01.2005 17:20 -1,3 C -0,2 C 73 % 1028 hPa 0,0 l/m 0,0 m/s (0 Bft) O-NO 75 0,00 min 26 lux -5,5 C -1,3 C
15.01.2005 17:25 -1,1 C -0,3 C 75 % 1028 hPa 0,0 l/m 0,0 m/s (0 Bft) O-NO 75 0,00 min 12 lux -5,0 C -1,1 C
15.01.2005 17:30 -1,5 C -0,4 C 77 % 1028 hPa 0,0 l/m 0,0 m/s (0 Bft) O-NO 75 0,00 min 9 lux -5,0 C -1,5 C
15.01.2005 17:35 -1,8 C -0,6 C 77 % 1028 hPa 0,0 l/m 0,0 m/s (0 Bft) O-NO 75 0,00 min 5 lux -5,3 C -1,8 C
15.01.2005 17:40 -2,0 C -0,8 C 77 % 1028 hPa 0,0 l/m 0,0 m/s (0 Bft) O-NO 75 0,00 min 0 lux -5,5 C -2,0 C
15.01.2005 17:45 -2,1 C -0,9 C 77 % 1028 hPa 0,0 l/m 0,0 m/s (0 Bft) O-NO 75 0,00 min 0 lux -5,6 C -2,1 C
15.01.2005 17:50 -2,2 C -1,0 C 78 % 1028 hPa 0,0 l/m 0,0 m/s (0 Bft) O-NO 75 0,00 min 0 lux -5,5 C -2,2 C
15.01.2005 17:55 -2,0 C -1,2 C 78 % 1028 hPa 0,0 l/m 0,0 m/s (0 Bft) O-NO 75 0,00 min 0 lux -5,3 C -2,0 C
15.01.2005 18:00 -2,0 C -1,2 C 80 % 1028 hPa 0,0 l/m 0,0 m/s (0 Bft) O-NO 75 0,00 min 0 lux -5,0 C -2,0 C
15.01.2005 18:05 -1,9 C -1,4 C 81 % 1028 hPa 0,0 l/m 0,0 m/s (0 Bft) O-NO 75 0,00 min 0 lux -4,7 C -1,9 C
15.01.2005 18:10 -2,5 C -1,5 C 81 % 1029 hPa 0,0 l/m 0,0 m/s (0 Bft) O-NO 75 0,00 min 0 lux -5,3 C -2,5 C
15.01.2005 18:15 -1,8 C -1,5 C 82 % 1029 hPa 0,0 l/m 0,0 m/s (0 Bft) O-NO 75 0,00 min 0 lux -4,5 C -1,8 C
15.01.2005 18:20 -1,9 C -1,6 C 83 % 1028 hPa 0,0 l/m 0,0 m/s (0 Bft) O-NO 75 0,00 min 0 lux -4,4 C -1,9 C
15.01.2005 18:25 -2,3 C -1,8 C 83 % 1028 hPa 0,0 l/m 0,0 m/s (0 Bft) O-NO 75 0,00 min 0 lux -4,8 C -2,3 C
15.01.2005 18:30 -2,6 C -1,8 C 82 % 1028 hPa 0,0 l/m 0,0 m/s (0 Bft) O-NO 75 0,00 min 0 lux -5,2 C -2,6 C
15.01.2005 18:35 -2,8 C -1,9 C 82 % 1028 hPa 0,0 l/m 0,0 m/s (0 Bft) O-NO 75 0,00 min 0 lux -5,4 C -2,8 C
15.01.2005 18:40 -2,6 C -2,0 C 82 % 1028 hPa 0,0 l/m 0,0 m/s (0 Bft) O-NO 75 0,00 min 0 lux -5,2 C -2,6 C
15.01.2005 18:45 -2,9 C -2,1 C 83 % 1028 hPa 0,0 l/m 0,0 m/s (0 Bft) O-NO 75 0,00 min 0 lux -5,4 C -2,9 C
15.01.2005 18:50 -2,9 C -2,1 C 83 % 1028 hPa 0,0 l/m 0,0 m/s (0 Bft) O-NO 75 0,00 min 0 lux -5,4 C -2,9 C
15.01.2005 18:55 -2,8 C -2,2 C 83 % 1028 hPa 0,0 l/m 0,0 m/s (0 Bft) O-NO 75 0,00 min 0 lux -5,3 C -2,8 C
15.01.2005 19:00 -3,0 C -2,2 C 84 % 1028 hPa 0,0 l/m 0,0 m/s (0 Bft) O-NO 75 0,00 min 0 lux -5,3 C -3,0 C
15.01.2005 19:05 -2,9 C -2,3 C 84 % 1028 hPa 0,0 l/m 0,0 m/s (0 Bft) O-NO 75 0,00 min 0 lux -5,2 C -2,9 C
15.01.2005 19:10 -2,7 C -2,3 C 84 % 1028 hPa 0,0 l/m 0,0 m/s (0 Bft) O-NO 75 0,00 min 0 lux -5,0 C -2,7 C
15.01.2005 19:15 -2,9 C -2,4 C 85 % 1028 hPa 0,0 l/m 0,0 m/s (0 Bft) O-NO 75 0,00 min 0 lux -5,1 C -2,9 C
15.01.2005 19:20 -2,7 C -2,4 C 85 % 1028 hPa 0,0 l/m 0,0 m/s (0 Bft) O-NO 75 0,00 min 0 lux -4,9 C -2,7 C
15.01.2005 19:25 -3,0 C -2,4 C 85 % 1028 hPa 0,0 l/m 0,0 m/s (0 Bft) O-NO 75 0,00 min 0 lux -5,2 C -3,0 C
15.01.2005 19:30 -3,3 C -2,5 C 85 % 1028 hPa 0,0 l/m 0,0 m/s (0 Bft) O-NO 75 0,00 min 0 lux -5,5 C -3,3 C
15.01.2005 19:35 -3,4 C -2,6 C 85 % 1028 hPa 0,0 l/m 0,0 m/s (0 Bft) O-NO 75 0,00 min 0 lux -5,5 C -3,4 C
15.01.2005 19:40 -3,0 C -2,6 C 86 % 1028 hPa 0,0 l/m 1,2 m/s (1 Bft) O 80 0,00 min 0 lux -5,0 C -3,0 C
15.01.2005 19:45 -3,0 C -2,7 C 86 % 1028 hPa 0,0 l/m 0,0 m/s (0 Bft) O 80 0,00 min 0 lux -5,0 C -3,0 C
15.01.2005 19:50 -2,8 C -2,7 C 86 % 1028 hPa 0,0 l/m 1,1 m/s (0 Bft) O 80 0,00 min 0 lux -4,8 C -2,8 C
15.01.2005 19:55 -3,1 C -2,7 C 85 % 1028 hPa 0,0 l/m 0,0 m/s (0 Bft) O 80 0,00 min 0 lux -5,3 C -3,1 C
15.01.2005 20:00 -3,0 C -2,7 C 84 % 1028 hPa 0,0 l/m 0,0 m/s (0 Bft) O 80 0,00 min 0 lux -5,3 C -3,0 C
15.01.2005 20:05 -3,5 C -2,8 C 84 % 1028 hPa 0,0 l/m 0,0 m/s (0 Bft) O 80 0,00 min 0 lux -5,8 C -3,5 C
15.01.2005 20:10 -3,4 C -2,8 C 84 % 1028 hPa 0,0 l/m 0,0 m/s (0 Bft) O 80 0,00 min 0 lux -5,7 C -3,4 C
15.01.2005 20:15 -3,2 C -2,8 C 85 % 1028 hPa 0,0 l/m 0,0 m/s (0 Bft) O 80 0,00 min 0 lux -5,4 C -3,2 C
15.01.2005 20:20 -3,3 C -2,9 C 85 % 1028 hPa 0,0 l/m 0,0 m/s (0 Bft) O 80 0,00 min 0 lux -5,5 C -3,3 C
15.01.2005 20:25 -3,3 C -3,0 C 85 % 1028 hPa 0,0 l/m 0,0 m/s (0 Bft) O 80 0,00 min 0 lux -5,5 C -3,3 C
15.01.2005 20:30 -3,3 C -3,0 C 85 % 1028 hPa 0,0 l/m 0,0 m/s (0 Bft) O 80 0,00 min 0 lux -5,5 C -3,3 C
15.01.2005 20:35 -3,3 C -3,1 C 85 % 1028 hPa 0,0 l/m 0,0 m/s (0 Bft) O 80 0,00 min 0 lux -5,5 C -3,3 C
15.01.2005 20:40 -3,4 C -3,2 C 85 % 1028 hPa 0,0 l/m 0,0 m/s (0 Bft) O 80 0,00 min 0 lux -5,5 C -3,4 C
15.01.2005 20:45 -3,5 C -3,2 C 85 % 1028 hPa 0,0 l/m 0,0 m/s (0 Bft) O 80 0,00 min 0 lux -5,6 C -3,5 C
15.01.2005 20:50 -3,9 C -3,3 C 85 % 1028 hPa 0,0 l/m 0,0 m/s (0 Bft) O 80 0,00 min 0 lux -6,0 C -3,9 C
15.01.2005 20:55 -3,9 C -3,3 C 85 % 1028 hPa 0,0 l/m 0,0 m/s (0 Bft) O 80 0,00 min 0 lux -6,0 C -3,9 C
15.01.2005 21:00 -3,6 C -3,3 C 85 % 1028 hPa 0,0 l/m 0,0 m/s (0 Bft) O 80 0,00 min 0 lux -5,7 C -3,6 C
15.01.2005 21:05 -3,5 C -3,4 C 86 % 1028 hPa 0,0 l/m 0,0 m/s (0 Bft) O 80 0,00 min 0 lux -5,5 C -3,5 C
15.01.2005 21:10 -3,5 C -3,4 C 86 % 1028 hPa 0,0 l/m 0,0 m/s (0 Bft) O 80 0,00 min 0 lux -5,5 C -3,5 C
15.01.2005 21:15 -3,9 C -3,4 C 86 % 1028 hPa 0,0 l/m 0,0 m/s (0 Bft) O 80 0,00 min 0 lux -5,9 C -3,9 C
15.01.2005 21:20 -3,7 C -3,5 C 86 % 1028 hPa 0,0 l/m 0,0 m/s (0 Bft) O 80 0,00 min 0 lux -5,7 C -3,7 C
15.01.2005 21:25 -3,6 C -3,5 C 86 % 1028 hPa 0,0 l/m 0,0 m/s (0 Bft) O 80 0,00 min 0 lux -5,6 C -3,6 C
15.01.2005 21:30 -3,7 C -3,5 C 86 % 1028 hPa 0,0 l/m 0,0 m/s (0 Bft) O 80 0,00 min 0 lux -5,7 C -3,7 C
15.01.2005 21:35 -3,7 C -3,6 C 86 % 1028 hPa 0,0 l/m 0,0 m/s (0 Bft) O 80 0,00 min 0 lux -5,7 C -3,7 C
15.01.2005 21:40 -3,8 C -3,6 C 86 % 1028 hPa 0,0 l/m 0,0 m/s (0 Bft) O 80 0,00 min 0 lux -5,8 C -3,8 C
15.01.2005 21:45 -3,9 C -3,7 C 85 % 1028 hPa 0,0 l/m 0,0 m/s (0 Bft) O 80 0,00 min 0 lux -6,0 C -3,9 C
15.01.2005 21:50 -4,0 C -3,7 C 85 % 1028 hPa 0,0 l/m 0,0 m/s (0 Bft) O 80 0,00 min 0 lux -6,1 C -4,0 C
15.01.2005 21:55 -3,9 C -3,7 C 86 % 1028 hPa 0,0 l/m 0,0 m/s (0 Bft) O 80 0,00 min 0 lux -5,9 C -3,9 C
15.01.2005 22:00 -3,9 C -3,8 C 86 % 1028 hPa 0,0 l/m 0,0 m/s (0 Bft) O 80 0,00 min 0 lux -5,9 C -3,9 C
15.01.2005 22:05 -3,7 C -3,8 C 86 % 1028 hPa 0,0 l/m 0,8 m/s (0 Bft) O 80 0,00 min 0 lux -5,7 C -3,7 C
15.01.2005 22:10 -3,7 C -3,9 C 86 % 1028 hPa 0,0 l/m 0,1 m/s (0 Bft) O 80 0,00 min 0 lux -5,7 C -3,7 C
15.01.2005 22:15 -4,0 C -3,9 C 86 % 1028 hPa 0,0 l/m 0,9 m/s (0 Bft) O 80 0,00 min 0 lux -6,0 C -4,0 C
15.01.2005 22:20 -4,2 C -3,9 C 85 % 1028 hPa 0,0 l/m 0,0 m/s (0 Bft) O 80 0,00 min 0 lux -6,3 C -4,2 C
15.01.2005 22:25 -4,3 C -4,0 C 85 % 1028 hPa 0,0 l/m 0,0 m/s (0 Bft) O 80 0,00 min 0 lux -6,4 C -4,3 C
15.01.2005 22:30 -4,5 C -4,0 C 85 % 1028 hPa 0,0 l/m 0,0 m/s (0 Bft) O 80 0,00 min 0 lux -6,6 C -4,5 C
15.01.2005 22:35 -4,2 C -4,0 C 85 % 1028 hPa 0,0 l/m 0,0 m/s (0 Bft) O 80 0,00 min 0 lux -6,3 C -4,2 C
15.01.2005 22:40 -4,3 C -4,0 C 85 % 1028 hPa 0,0 l/m 0,0 m/s (0 Bft) O 80 0,00 min 0 lux -6,4 C -4,3 C
15.01.2005 22:45 -4,3 C -4,0 C 85 % 1028 hPa 0,0 l/m 0,0 m/s (0 Bft) O 80 0,00 min 0 lux -6,4 C -4,3 C
15.01.2005 22:50 -4,4 C -4,1 C 85 % 1028 hPa 0,0 l/m 0,0 m/s (0 Bft) O 80 0,00 min 0 lux -6,5 C -4,4 C
15.01.2005 22:55 -4,8 C -4,1 C 85 % 1028 hPa 0,0 l/m 0,0 m/s (0 Bft) O 80 0,00 min 0 lux -6,9 C -4,8 C
15.01.2005 23:00 -4,8 C -4,2 C 85 % 1028 hPa 0,0 l/m 0,0 m/s (0 Bft) O 80 0,00 min 0 lux -6,9 C -4,8 C
15.01.2005 23:05 -4,6 C -4,2 C 85 % 1028 hPa 0,0 l/m 0,0 m/s (0 Bft) O 80 0,00 min 0 lux -6,7 C -4,6 C
15.01.2005 23:10 -4,7 C -4,2 C 85 % 1028 hPa 0,0 l/m 0,0 m/s (0 Bft) O 80 0,00 min 0 lux -6,8 C -4,7 C
15.01.2005 23:15 -4,7 C -4,3 C 85 % 1028 hPa 0,0 l/m 0,0 m/s (0 Bft) O 80 0,00 min 0 lux -6,8 C -4,7 C
15.01.2005 23:20 -4,6 C -4,4 C 85 % 1028 hPa 0,0 l/m 0,0 m/s (0 Bft) O 80 0,00 min 0 lux -6,7 C -4,6 C
15.01.2005 23:25 -4,7 C -4,4 C 86 % 1028 hPa 0,0 l/m 0,0 m/s (0 Bft) O 80 0,00 min 0 lux -6,7 C -4,7 C
15.01.2005 23:30 -4,9 C -4,5 C 86 % 1028 hPa 0,0 l/m 0,0 m/s (0 Bft) O 80 0,00 min 0 lux -6,9 C -4,9 C
15.01.2005 23:35 -4,8 C -4,5 C 86 % 1028 hPa 0,0 l/m 0,0 m/s (0 Bft) O 80 0,00 min 0 lux -6,8 C -4,8 C
15.01.2005 23:40 -4,7 C -4,5 C 86 % 1028 hPa 0,0 l/m 0,0 m/s (0 Bft) O 80 0,00 min 0 lux -6,7 C -4,7 C
15.01.2005 23:45 -4,8 C -4,5 C 86 % 1028 hPa 0,0 l/m 0,0 m/s (0 Bft) O 80 0,00 min 0 lux -6,8 C -4,8 C
15.01.2005 23:50 -4,8 C -4,6 C 86 % 1028 hPa 0,0 l/m 0,0 m/s (0 Bft) O 80 0,00 min 0 lux -6,8 C -4,8 C
15.01.2005 23:55 -5,0 C -4,6 C 86 % 1028 hPa 0,0 l/m 0,0 m/s (0 Bft) O 80 0,00 min 0 lux -7,0 C -5,0 C
_ Min-Zeit 23:55 23:50 14:45 14:35 - 00:20 - - - - 23:55 15:00
Minimum _ -5,0 C -4,6 C 54 % 1028 hPa - 0,0 m/s (0 Bft) - - - - -7,0 C -6,2 C
_ Max-Zeit 14:00 14:15 08:10 11:10 00:00 15:00 - - 10:50 11:10 11:55 16:35
Maximum _ 2,7 C 2,9 C 95 % 1031 hPa 0,0 l/m 5,3 m/s
SO (3 Bft)
- - 5,00 min 41,2 klux -1,4 C 1,2 C
Durchschnitt _ -1,6 C -0,9 C 83 % 1029 hPa #0,0 l/m 1,1 m/s (1 Bft) W - #5:45 h 8,06 klux -4,2 C -2,6 C